Location: Stamford Observatory
(41.1241°N, 73.5498°W)
Time: 04:25:01
(UTC-04:00)

IRS-P3 - Visible Passes

Search period start: 29 September 2016 00:00
Search period end: 09 October 2016 00:00
Orbit: 814 x 820 km, 98.7° (Epoch: 27 September)

Date Brightness Start Highest point End Pass type
(mag) Time Alt. Az. Time Alt. Az. Time Alt. Az.
29 Sep 6.7 03:02:23 10° N 03:02:55 13° N 03:02:55 13° N visible
30 Sep 6.9 02:40:36 10° NNE 02:40:52 11° NNE 02:40:52 11° NNE visible
02 Oct 6.7 03:37:54 10° N 03:38:03 11° N 03:38:03 11° N visible
03 Oct 6.8 03:15:51 10° N 03:16:00 11° N 03:16:00 11° N visible
